Regional Weather Roundup
Issued by NWS New Orleans/Baton Rouge, LA

Home | Current Version | Previous Version | Text Only | Print | Product List | Glossary On
Versions: 1 2 3 4 5 6 7 8 9 10 11 12 13 14 15 16 17 18 19 20 21 22 23 24 25 26 27 28 29 30 31 32 33 34 35 36 37 38 39 40 41 42 43 44 45 46 47 48 49 50
000
ASUS44 KLIX 240710
RWRLIX
NEW ORLEANS REGIONAL WEATHER ROUNDUP
NATIONAL WEATHER SERVICE NEW ORLEANS LA
200 AM CDT THU JUL 24 2014

NOTE: "FAIR" INDICATES FEW OR NO CLOUDS BELOW 12,000 FEET WITH NO
      SIGNIFICANT WEATHER AND/OR OBSTRUCTIONS TO VISIBILITY.
      SKY/WX - SKY CONDITION AND SIGNIFICANT WEATHER.
      TMP - AIR TEMPERATURE.     DP    - DEWPOINT TEMPERATURE.
      RH  - RELATIVE HUMIDITY.   PRES  - PRESSURE.
      HI  - HEAT INDEX.          WCI   - WIND CHILL INDEX.

*  THESE STATIONS ARE NOT NWS OR FAA STATIONS AND ARE NOT UNDER
   NWS QUALITY CONTROL.

LAZ038-040-048-061>063-065>067-069-240800-
SOUTHEAST LOUISIANA

CITY           SKY/WX    TMP DP  RH WIND       PRES   REMARKS
N.O. AUDUBON   NOT AVBL
N.O. INTL ARPT MOCLDY    76  72  87 SE3       29.97F
N.O. LAKEFRONT PTCLDY    77  73  87 CALM      29.98F
N.O. DOWNTOWN*   N/A     79  70  73 CALM      29.98S
SLIDELL        CLEAR     72  69  90 CALM      29.97F
BATON ROUGE    PTCLDY    76  73  91 CALM      29.96F
BOOTHVILLE       N/A     79  74  84 S6        29.98F
BELLE CHASSE   PTCLDY    75  71  87 CALM      29.97F
BOGALUSA*        N/A     74  70  88 CALM      29.99F
GALLIANO*      NOT AVBL
NEW ROADS*     LGT RAIN  76  73  91 CALM      29.96F
GONZALES*        N/A     73  73 100 CALM      29.96F
HAMMOND*       CLEAR     75  70  83 CALM      29.99F
HOUMA*         PTCLDY    73  69  88 CALM      29.97F
PORT FOURCHON* PTSUNNY   79  73  83 S9        29.98F

$$

MSZ070-080>082-240800-
SOUTHERN MISSISSIPPI

CITY           SKY/WX    TMP DP  RH WIND       PRES   REMARKS
MCCOMB         CLEAR     74  71  91 CALM      29.98F
GULFPORT       CLEAR     77  72  84 CALM      29.97F
BILOXI         CLEAR     77  72  84 S7        29.98F
PASCAGOULA     CLEAR     71  70  96 CALM      29.99S

$$

COASTAL OBSERVATIONS
LAKE AND NEARSHORE STATIONS

STATION/POSITION TIME  TEMP    WIND        PRES    WAVE
                       AIR SEA DIR/SP/G            HT/PER
                 (UTC) (F)     (DEG/KT/KT) (MB)    (FT/S)
WAVELAND YACHT   0600   79     200/  3/  4 1014.7
GRAND ISLE       0600   80 83  210/  4/  6 1015.6
SOUTHWEST PASS   0600   82 84  190/  8/ 10 1015.8
NEW CANAL        0600   78 82     CALM     1015.6
SHELL BEACH      0600   78 80  130/  3/  4 1015.0

OFFSHORE STATIONS

STATION/POSITION TIME  TEMP    WIND        PRES    WAVE
                       AIR SEA DIR/SP/G            HT/PER
                 (UTC) (F)     (DEG/KT/KT) (MB)    (FT/S)
64 S DAUPHIN ISL 0637   82 84  210/  8/ 10 1015.8

$$




USA.gov is the U.S. government's official web portal to all federal, state and local government web resources and services.